Location: Bh?mavarapp?du
(16.7041°N, 80.6518°E)
Time: 06:30:21
(UTC+00:00)

Meteor 2-19 Rocket - Pass Details

Date: 21 April 2021
Orbit: 937 x 958 km, 82.5° (Epoch: 06 May)

Event Time Altitude Azimuth Distance (km) Brightness Sun altitude
Rises 14:26:02 0° 1° (N) 3,629 7.7 -21.9°
Reaches altitude 10° 14:28:34 10° 5° (N) 2,684 7.0 -22.4°
Maximum altitude 14:34:37 61° 85° (E) 1,077 4.4 -23.8°
Enters shadow 14:35:51 51° 131° (SE) 1,188 4.5 -24.0°
